Wetbulb
53.83 52.79 53.58 54.20 55.36 55.70 54.62 53.89 55.58 56.74 57.26 58.79 58.71 59.08 59.60 60.06 60.06 57.02 56.02 59.88 61.27 63.30 62.33 58.31 59.38 57.61 57.79 55.54 54.00 50.54 43.26 41.68 44.51 45.74 46.09 49.77 48.67 52.30 55.50 56.70 56.49 58.05 57.65 59.53 61.99
52.13 53.34 53.32 53.23 53.82 55.16 55.44 55.48 54.03 54.80 56.33 57.82 58.22 58.67 59.09 59.48 56.33 53.46 60.15 62.11 62.54 62.93 57.50 56.78 55.83 56.28 54.11 53.53 51.24 47.76 42.06 43.11 47.47 48.17 47.69 49.05 49.13 51.59 54.51 54.84 55.31 56.76 58.78 61.07 61.85
51.19 52.10 53.38 52.68 52.84 53.49 54.91 55.27 55.63 54.40 55.25 56.98 58.37 58.35 58.41 58.44 52.37 53.05 60.68 61.36 62.02 60.93 57.78 57.03 57.42 56.25 52.86 52.91 51.14 46.92 43.33 45.56 47.16 48.99 49.19 48.94 49.62 52.01 52.76 52.39 54.58 55.40 56.66 59.90 60.03
51.28 51.17 51.99 53.04 52.46 52.25 53.18 54.74 55.10 55.71 54.51 56.30 57.91 57.99 58.42 55.75 43.25 54.08 60.25 61.41 61.51 60.15 56.38 55.13 55.02 53.13 51.43 49.45 50.69 46.84 47.63 46.81 48.82 48.27 48.28 48.22 50.01 50.48 52.56 53.53 54.45 57.88 59.21 59.32 59.34
51.73 51.44 50.89 52.21 52.65 52.04 52.21 53.15 54.38 55.24 54.48 55.51 57.24 58.12 54.25 47.00 48.12 56.65 59.30 59.65 58.36 56.99 53.89 53.29 52.84 52.46 50.02 50.96 48.92 48.64 47.43 47.35 48.09 48.49 48.22 49.45 49.01 49.90 50.60 53.63 57.60 58.51 59.27 59.20 59.52
52.74 52.40 50.41 51.62 52.17 52.03 51.48 52.01 53.17 54.42 54.97 54.60 56.33 56.97 49.35 41.63 53.88 57.64 56.85 57.13 56.50 55.51 53.98 53.95 53.04 54.24 51.97 50.94 50.27 50.14 48.50 47.82 48.20 47.86 48.39 48.31 48.45 49.74 51.10 56.93 57.28 57.69 57.79 58.97 59.58
52.13 52.04 51.21 51.85 52.11 52.02 51.38 51.60 52.25 53.86 54.72 53.93 55.32 53.58 47.32 44.43 54.47 57.26 56.49 55.32 56.11 55.91 53.20 55.01 54.74 53.16 52.10 48.49 50.06 48.87 46.33 46.82 46.38 46.65 46.98 47.91 45.93 47.90 51.74 56.70 56.32 56.69 57.10 57.77 58.91
52.09 52.40 51.80 51.87 51.98 52.13 51.59 51.60 51.99 53.66 54.36 53.71 55.00 50.10 42.55 53.31 54.34 55.07 56.12 54.60 55.82 56.84 56.00 56.17 55.76 52.35 51.32 50.54 48.02 45.19 47.24 44.38 44.40 45.67 46.32 48.40 42.16 48.28 52.03 55.48 55.32 55.75 56.27 57.17 57.96
52.48 52.37 51.64 51.83 52.04 52.01 51.94 51.43 52.50 53.98 53.51 54.85 47.22 45.44 40.81 54.79 51.42 53.66 55.20 52.28 53.26 54.80 56.32 56.56 54.13 51.33 49.60 46.47 44.25 44.25 41.01 42.46 41.17 45.01 44.69 46.60 44.08 47.85 51.32 54.85 54.16 54.84 55.51 56.85 57.46
52.24 52.14 51.78 52.07 51.99 51.63 51.49 51.76 52.46 51.46 50.65 50.99 49.59 40.76 43.65 43.91 50.17 52.75 54.14 54.52 50.88 51.59 51.31 51.14 49.68 47.47 47.00 45.43 38.44 40.71 41.61 42.14 42.85 42.56 43.20 44.07 44.88 46.18 46.23 54.22 53.98 54.16 55.00 56.01 57.05
51.71 51.97 51.98 51.89 51.87 51.31 48.49 44.73 38.83 37.27 42.17 36.12 38.36 40.37 45.44 47.03 50.78 50.27 52.89 51.19 50.40 48.42 45.63 48.36 44.46 42.25 45.12 46.71 44.59 43.72 43.28 41.01 41.27 44.15 42.46 42.50 43.64 46.27 46.01 46.75 51.53 53.22 54.38 55.41 56.91
51.62 51.86 51.90 51.90 51.71 51.59 46.15 39.46 38.19 39.38 32.90 41.06 43.83 44.56 46.01 48.42 41.51 46.31 52.07 45.32 44.27 40.63 44.78 44.36 40.78 44.63 47.13 47.21 45.20 43.34 42.50 42.22 42.07 44.25 42.00 40.83 42.13 44.83 45.21 46.30 48.92 51.49 53.00 54.62 56.09
51.99 51.86 52.07 51.69 51.37 48.50 41.81 41.55 47.00 44.49 33.81 37.49 42.21 42.34 44.68 45.41 41.64 41.04 48.45 46.24 41.63 38.81 41.36 39.49 41.83 46.22 44.96 44.42 43.74 43.74 41.93 41.13 41.35 42.28 43.26 41.72 41.06 43.27 44.47 43.49 42.82 43.29 47.12 50.38 53.01
51.61 52.04 52.10 51.57 44.45 44.45 40.29 45.61 47.33 44.17 21.14 26.73 36.43 40.16 44.16 44.78 38.55 44.57 48.40 46.17 43.08 38.13 39.05 39.69 43.74 44.15 43.09 41.94 43.69 39.45 44.75 43.63 41.07 39.82 37.23 42.35 36.21 40.43 42.18 39.63 38.81 40.52 43.45 44.38 45.29
51.92 52.20 51.69 50.39 41.59 41.37 43.21 48.29 45.47 38.83 5.34 29.59 35.98 45.33 44.00 38.58 40.78 43.07 47.56 45.86 40.48 39.75 39.61 36.25 40.17 41.30 41.17 42.66 44.93 40.97 44.55 43.04 41.89 39.27 38.84 38.69 36.92 39.39 40.84 38.06 36.89 38.80 40.61 41.92 42.74
52.02 51.97 51.23 46.44 43.58 44.56 46.36 44.41 40.01 19.74 6.37 30.05 37.45 36.35 36.35 39.93 38.78 42.94 42.60 46.38 44.20 41.95 39.81 37.64 40.61 41.95 42.19 44.61 45.38 44.46 41.06 39.99 38.63 38.17 32.24 37.98 37.73 37.63 37.94 39.82 36.72 39.61 40.39 41.09 41.74
51.41 50.11 46.57 45.34 42.18 46.33 43.98 42.30 20.19 9.78 24.54 26.76 32.25 34.53 34.73 34.88 36.90 38.69 38.28 39.10 37.12 32.52 33.35 37.61 37.90 40.73 43.29 41.18 43.56 43.05 39.41 31.54 29.84 29.84 30.76 33.03 36.90 39.70 42.33 38.57 39.26 39.08 39.84 41.01 42.14
48.92 46.63 44.41 43.25 45.00 44.91 42.40 32.90 17.96 9.59 17.00 31.63 33.06 34.61 30.94 34.95 35.88 36.97 36.68 34.73 37.38 36.87 34.36 32.06 29.69 37.28 43.01 40.90 38.67 40.51 39.12 32.35 25.40 24.99 27.54 33.53 33.49 37.58 42.01 40.82 41.57 41.32 41.32 42.03 42.50
46.41 38.74 38.39 41.78 46.98 45.80 36.29 24.72 14.03 14.44 25.43 27.61 30.73 28.88 28.97 33.71 34.83 35.32 34.11 34.96 36.43 38.13 33.26 32.40 32.88 39.22 40.35 41.91 41.82 38.20 36.12 35.92 27.64 22.24 25.43 32.30 34.68 37.04 37.24 39.53 40.59 40.54 41.36 41.30 41.68
37.39 35.47 36.27 41.78 46.00 39.97 29.44 26.35 22.96 33.43 32.51 32.11 23.57 24.29 23.03 28.77 30.16 32.64 32.43 36.32 36.29 39.12 37.53 35.57 29.36 36.19 38.47 42.13 40.58 38.88 38.63 31.83 31.72 23.28 21.64 25.89 27.31 30.84 32.87 37.21 41.45 41.19 40.40 41.13 41.65
34.91 29.96 36.19 40.77 40.35 29.99 18.58 25.78 30.02 36.08 35.88 32.55 22.41 24.21 21.56 28.72 31.27 31.45 31.74 34.74 38.71 37.97 39.26 36.89 34.06 32.45 36.85 35.87 35.16 35.25 34.13 34.92 32.98 30.89 22.98 21.52 27.01 31.33 32.57 40.67 42.00 41.31 40.64 40.20 39.22
31.08 22.53 36.13 37.35 25.89 18.32 17.37 28.41 33.59 32.93 35.77 34.52 33.98 31.59 29.72 31.21 29.63 28.36 30.72 31.46 39.04 39.55 35.33 37.53 34.25 29.57 32.18 35.69 38.20 37.15 35.82 33.87 29.60 25.54 24.32 26.56 25.20 32.86 34.11 41.41 42.91 39.15 39.42 38.18 37.99
25.18 25.38 34.24 34.44 15.46 22.93 27.87 29.84 31.32 29.04 29.88 31.92 30.96 34.13 33.30 28.48 28.01 31.42 32.34 36.00 38.20 39.03 36.35 36.65 29.84 23.90 28.15 33.06 34.46 33.39 35.37 34.18 32.69 29.45 24.29 22.79 24.45 33.39 35.14 36.58 37.56 35.72 35.28 35.62 35.16
26.76 21.12 25.08 26.54 23.07 25.01 22.58 20.74 22.70 30.58 29.05 32.83 30.67 33.62 32.83 29.99 31.53 30.33 31.28 34.59 38.65 39.70 40.70 38.14 29.05 24.77 23.46 25.38 30.77 32.22 32.30 33.37 33.99 28.72 25.64 25.15 25.90 29.82 31.84 32.76 33.57 34.02 34.56 34.12 33.79
23.98 16.60 17.19 16.48 17.99 20.32 24.10 24.51 23.85 23.31 28.25 29.71 29.27 27.58 27.57 27.10 27.92 28.83 32.27 33.84 36.83 39.41 38.25 34.26 22.46 25.68 26.08 27.20 28.05 30.29 31.43 32.51 31.22 30.08 26.40 28.05 27.86 30.29 32.09 32.70 33.14 33.70 33.31 32.79 32.29
24.58 22.40 25.07 23.53 24.97 23.83 19.35 18.91 22.63 21.53 25.78 26.94 26.57 28.24 28.30 26.83 27.63 24.66 31.14 32.20 32.92 36.01 35.26 35.66 26.48 25.77 22.40 27.95 30.03 28.35 31.08 33.23 34.11 33.60 32.50 30.20 28.67 32.89 33.20 31.74 31.91 32.96 32.89 31.97 31.67
27.31 27.79 27.07 23.95 18.01 18.21 19.01 20.22 25.24 27.05 28.35 29.39 28.56 28.42 27.26 28.55 32.49 33.11 34.18 34.64 35.10 33.87 33.14 33.19 25.76 20.26 16.85 26.12 26.48 19.61 28.28 31.62 31.95 33.66 34.89 28.80 32.25 32.89 30.38 31.69 32.37 32.62 32.89 31.90 31.40
MSLP
1021.33 1021.20 1021.02 1020.84 1020.67 1020.62 1020.45 1020.42 1020.38 1020.08 1019.93 1019.72 1019.56 1019.39 1019.17 1018.83 1018.23 1017.93 1018.21 1018.25 1018.11 1018.15 1017.99 1017.66 1017.35 1017.40 1017.57 1018.20 1018.60 1019.47 1020.09 1019.98 1019.29 1019.01 1018.77 1018.27 1018.20 1018.20 1018.27 1018.69 1019.00 1019.22 1019.47 1019.51 1020.22
1021.28 1021.23 1021.06 1020.97 1020.81 1020.65 1020.54 1020.42 1020.47 1020.33 1019.97 1019.80 1019.43 1019.32 1019.15 1018.95 1018.49 1018.28 1018.27 1017.85 1017.59 1017.36 1017.64 1018.25 1018.30 1017.83 1018.21 1018.55 1018.93 1019.59 1020.18 1019.69 1019.27 1019.02 1018.88 1018.54 1018.41 1018.25 1018.51 1018.72 1019.15 1019.52 1019.80 1019.96 1020.43
1021.13 1021.13 1021.15 1020.92 1020.89 1020.72 1020.62 1020.47 1020.50 1020.41 1020.19 1019.96 1019.66 1019.41 1019.13 1018.96 1018.79 1018.40 1018.25 1018.11 1018.04 1018.05 1018.07 1017.85 1017.50 1017.65 1018.70 1018.80 1019.16 1019.56 1019.69 1019.40 1019.16 1019.06 1018.92 1018.67 1018.41 1018.42 1018.59 1018.87 1018.62 1019.02 1019.87 1020.29 1020.66
1021.03 1021.18 1021.11 1021.08 1020.90 1020.86 1020.70 1020.56 1020.40 1020.43 1020.40 1019.95 1019.68 1019.33 1019.14 1019.15 1019.12 1018.69 1018.41 1018.23 1018.08 1018.15 1018.23 1018.22 1018.55 1019.23 1019.07 1019.07 1018.92 1019.41 1019.20 1019.21 1018.98 1019.09 1018.92 1018.78 1018.54 1018.49 1018.62 1018.29 1018.18 1018.39 1019.33 1020.00 1020.56
1020.78 1020.92 1021.04 1021.06 1020.98 1020.85 1020.75 1020.64 1020.51 1020.47 1020.39 1020.06 1019.79 1019.52 1019.48 1019.31 1019.00 1018.64 1018.39 1018.09 1018.10 1018.29 1018.39 1018.60 1018.82 1018.94 1019.12 1018.91 1019.06 1018.82 1018.98 1019.21 1018.97 1018.83 1018.83 1018.83 1018.60 1018.59 1018.33 1018.26 1018.32 1018.72 1019.52 1019.96 1020.50
1020.51 1020.74 1020.86 1020.85 1020.92 1020.84 1020.74 1020.65 1020.61 1020.48 1020.28 1020.11 1019.86 1019.57 1019.57 1019.50 1018.79 1018.77 1018.61 1018.23 1018.29 1018.34 1018.52 1018.75 1018.71 1018.53 1018.87 1019.00 1018.61 1018.47 1018.84 1019.05 1018.99 1018.71 1018.85 1018.77 1018.69 1018.70 1018.31 1018.52 1018.93 1019.17 1019.57 1020.00 1020.20
1020.35 1020.56 1020.64 1020.70 1020.77 1020.75 1020.77 1020.69 1020.60 1020.56 1020.36 1020.18 1019.96 1019.94 1019.89 1019.42 1019.07 1018.84 1018.51 1018.73 1018.82 1018.48 1018.60 1018.61 1018.64 1018.70 1018.84 1019.46 1018.99 1018.59 1019.48 1019.28 1019.05 1019.00 1018.93 1018.82 1018.86 1018.87 1018.77 1018.87 1019.25 1019.57 1019.84 1020.21 1020.32
1020.16 1020.32 1020.47 1020.59 1020.62 1020.59 1020.68 1020.67 1020.57 1020.43 1020.25 1020.11 1020.04 1020.17 1019.78 1018.96 1018.89 1018.81 1018.61 1018.93 1018.88 1018.66 1018.58 1018.83 1019.01 1019.10 1018.93 1019.65 1019.43 1019.05 1019.24 1019.40 1019.39 1019.24 1018.92 1018.72 1019.01 1019.13 1019.06 1019.21 1019.45 1019.77 1020.05 1020.17 1020.37
1019.94 1020.17 1020.27 1020.43 1020.44 1020.49 1020.47 1020.56 1020.47 1020.32 1020.21 1020.05 1020.25 1020.19 1019.75 1019.10 1019.05 1019.12 1019.02 1018.95 1018.80 1018.86 1019.01 1018.97 1018.97 1019.16 1019.47 1019.54 1019.99 1019.39 1019.15 1019.46 1019.97 1019.50 1019.14 1019.11 1019.18 1019.16 1019.15 1019.46 1019.58 1019.96 1020.19 1020.09 1020.39
1019.68 1019.97 1020.12 1020.25 1020.33 1020.39 1020.43 1020.43 1020.29 1020.19 1020.21 1020.23 1020.35 1020.61 1019.88 1019.52 1019.10 1019.11 1019.14 1019.02 1019.04 1019.18 1019.28 1018.93 1019.11 1019.09 1019.16 1019.14 1019.11 1019.29 1019.42 1019.68 1019.73 1019.76 1019.73 1019.56 1019.25 1019.17 1019.26 1019.50 1019.70 1020.05 1020.22 1020.32 1020.51
1019.47 1019.70 1019.92 1020.09 1020.31 1020.36 1020.57 1020.59 1020.98 1020.86 1020.52 1020.36 1020.34 1020.16 1019.62 1019.44 1019.34 1019.43 1019.44 1019.31 1019.44 1019.39 1019.23 1019.12 1019.30 1018.86 1018.79 1018.85 1018.99 1019.11 1019.44 1019.72 1019.95 1019.95 1019.91 1019.60 1019.15 1018.84 1019.22 1019.41 1019.66 1020.03 1020.33 1020.69 1020.68
1019.32 1019.50 1019.75 1019.95 1020.16 1020.43 1020.66 1020.79 1020.76 1020.91 1020.69 1020.59 1020.33 1020.11 1019.86 1019.54 1019.57 1019.45 1019.53 1019.83 1019.75 1019.56 1019.54 1019.51 1019.18 1018.96 1018.86 1019.17 1019.35 1019.57 1019.74 1020.05 1020.54 1020.38 1020.30 1019.99 1019.45 1019.20 1019.30 1019.50 1019.46 1019.96 1020.32 1021.01 1021.16
1019.20 1019.45 1019.65 1019.94 1020.19 1020.56 1020.75 1020.69 1020.63 1020.69 1020.89 1020.78 1020.35 1019.91 1019.69 1019.81 1019.59 1019.65 1019.69 1019.65 1019.82 1019.88 1019.91 1019.81 1019.35 1018.78 1019.23 1019.50 1019.65 1019.67 1019.99 1020.25 1020.58 1020.67 1020.72 1020.50 1020.08 1019.65 1019.42 1019.76 1020.20 1020.44 1020.62 1021.09 1021.72
1019.18 1019.39 1019.67 1019.99 1020.82 1020.83 1020.86 1020.46 1020.51 1020.74 1021.32 1021.04 1020.57 1019.82 1019.69 1019.59 1019.60 1019.29 1019.42 1019.55 1019.75 1019.77 1019.96 1019.57 1019.06 1019.04 1019.27 1019.54 1019.69 1019.89 1019.88 1020.13 1020.74 1020.93 1020.84 1020.37 1020.04 1019.57 1019.51 1020.09 1020.98 1021.37 1021.52 1022.03 1022.54
1019.21 1019.41 1019.75 1020.04 1020.64 1020.86 1020.73 1020.55 1020.49 1020.86 1021.76 1021.29 1020.55 1019.91 1019.67 1019.83 1019.95 1019.69 1019.68 1019.59 1019.63 1019.77 1020.04 1019.47 1019.22 1019.34 1019.28 1019.12 1019.32 1019.92 1020.02 1020.40 1020.82 1021.03 1021.01 1020.93 1020.91 1019.40 1019.75 1020.87 1021.61 1022.15 1022.23 1022.66 1023.06
1019.29 1019.54 1019.94 1020.59 1020.88 1020.71 1020.65 1020.59 1020.91 1022.28 1022.31 1021.47 1020.64 1020.21 1020.01 1019.95 1019.90 1019.90 1019.98 1019.84 1020.01 1020.02 1020.05 1019.84 1019.44 1019.37 1019.11 1019.14 1019.29 1019.97 1020.59 1021.06 1021.53 1021.62 1021.61 1020.74 1020.71 1019.77 1020.00 1020.30 1021.73 1022.64 1022.96 1023.21 1023.59
1019.60 1019.85 1020.22 1020.69 1021.02 1020.69 1020.75 1020.97 1022.42 1023.06 1022.92 1022.37 1021.43 1020.80 1020.43 1020.41 1020.38 1020.26 1020.24 1020.29 1020.04 1020.31 1019.99 1020.21 1020.10 1019.81 1019.64 1019.65 1019.70 1020.18 1020.68 1021.61 1022.31 1022.29 1021.53 1021.14 1020.91 1019.58 1019.74 1020.21 1021.06 1022.40 1023.22 1023.67 1024.28
1019.91 1019.83 1020.97 1021.32 1021.06 1020.81 1021.19 1022.17 1023.36 1023.57 1023.14 1022.78 1022.13 1021.34 1021.01 1020.74 1020.70 1020.63 1020.43 1020.60 1020.52 1020.32 1020.37 1020.16 1020.90 1020.45 1020.17 1019.72 1019.80 1020.29 1020.44 1020.93 1021.54 1022.39 1022.25 1021.87 1020.64 1019.92 1020.07 1020.18 1021.38 1022.16 1023.04 1023.88 1024.54
1020.09 1020.71 1021.35 1021.67 1021.22 1020.92 1022.36 1022.75 1023.36 1023.51 1023.19 1022.96 1022.47 1021.81 1021.49 1021.07 1021.10 1020.88 1020.80 1020.61 1020.44 1020.52 1020.61 1020.35 1020.67 1020.64 1020.55 1020.19 1020.14 1020.48 1020.99 1021.55 1022.02 1023.13 1022.83 1021.99 1020.99 1020.48 1020.83 1021.20 1022.20 1022.95 1023.48 1024.38 1025.07
1020.84 1021.36 1021.92 1021.75 1021.40 1021.67 1022.64 1023.29 1023.51 1023.19 1023.11 1022.98 1022.64 1022.12 1021.68 1021.36 1021.40 1021.06 1020.88 1020.59 1020.42 1020.35 1020.62 1020.93 1021.23 1021.20 1020.76 1020.31 1020.56 1020.29 1020.86 1021.79 1022.36 1023.09 1023.11 1022.21 1021.77 1020.87 1021.30 1021.75 1022.53 1023.46 1024.19 1025.00 1025.73
1021.07 1022.09 1022.04 1021.79 1021.64 1022.60 1023.74 1023.75 1023.37 1022.93 1022.81 1022.69 1022.57 1022.23 1021.89 1021.32 1021.38 1021.25 1020.99 1020.76 1020.34 1020.66 1020.75 1021.18 1021.28 1021.98 1021.38 1021.13 1021.16 1021.30 1021.10 1021.71 1022.20 1022.33 1022.24 1022.41 1021.41 1020.84 1021.08 1021.29 1022.27 1023.35 1024.35 1025.28 1026.11
1021.79 1022.95 1022.29 1022.14 1023.12 1024.60 1024.66 1024.19 1023.63 1023.05 1022.84 1022.47 1022.39 1022.28 1021.90 1021.50 1021.40 1021.36 1021.23 1020.81 1020.55 1020.60 1020.90 1021.22 1021.50 1021.79 1021.91 1021.93 1021.76 1021.34 1021.19 1021.43 1021.44 1022.50 1022.54 1022.20 1021.40 1021.15 1021.10 1021.78 1022.82 1023.81 1024.80 1025.72 1026.38
1022.73 1023.19 1022.65 1022.59 1024.22 1025.27 1024.89 1024.35 1023.85 1023.30 1022.98 1022.73 1022.47 1022.28 1022.05 1021.76 1021.57 1021.27 1021.17 1021.14 1020.77 1020.67 1020.71 1021.18 1021.70 1022.21 1022.54 1022.59 1022.45 1021.83 1021.49 1021.72 1021.34 1021.74 1021.93 1022.17 1021.85 1021.87 1021.97 1022.41 1023.54 1024.20 1025.40 1026.21 1027.10
1023.24 1024.13 1024.12 1024.57 1025.57 1025.40 1025.48 1024.95 1024.13 1023.40 1023.25 1023.03 1022.93 1022.51 1022.18 1021.96 1021.77 1021.50 1021.47 1021.42 1021.05 1020.85 1020.98 1021.17 1021.99 1022.16 1022.30 1021.96 1021.76 1021.99 1021.78 1021.79 1021.81 1022.16 1021.67 1021.50 1021.89 1022.57 1022.70 1022.98 1024.10 1025.11 1025.63 1026.18 1027.08
1023.95 1025.36 1025.65 1026.06 1026.24 1025.88 1025.19 1024.81 1024.34 1023.95 1023.50 1023.37 1023.17 1022.94 1022.62 1022.35 1022.27 1021.93 1021.77 1021.66 1021.56 1021.25 1021.24 1021.64 1022.41 1022.70 1022.90 1022.66 1022.17 1021.84 1021.77 1021.94 1021.54 1021.44 1021.43 1020.98 1021.54 1021.74 1022.57 1023.35 1024.18 1024.82 1025.75 1026.57 1027.35
1023.65 1024.95 1025.82 1026.28 1026.20 1025.87 1025.78 1025.32 1024.63 1024.59 1024.30 1023.69 1023.50 1023.26 1022.81 1022.84 1022.84 1022.47 1022.05 1021.95 1021.52 1021.73 1021.76 1022.16 1022.88 1023.14 1023.29 1022.65 1022.16 1022.02 1021.99 1021.60 1021.86 1021.64 1021.21 1021.21 1021.35 1021.47 1022.74 1024.13 1024.59 1024.90 1025.69 1026.68 1027.60
1023.44 1023.85 1023.96 1026.40 1026.56 1026.26 1025.60 1025.13 1024.73 1024.55 1024.46 1024.04 1023.90 1023.72 1023.69 1023.82 1023.49 1023.19 1022.94 1022.56 1022.20 1022.09 1022.29 1022.73 1023.35 1024.05 1024.43 1023.66 1023.15 1022.76 1021.50 1021.36 1021.23 1021.17 1020.90 1021.17 1020.88 1021.79 1023.16 1023.85 1024.19 1024.80 1025.81 1026.88 1027.89
Wind_Speed
8 7 8 9 9 8 6 6 8 10 12 13 7 9 9 11 10 2 1 1 1 2 0 4 3 3 3 3 4 3 4 0 2 1 4 5 4 2 0 5 1 1 4 1 16
7 7 7 7 8 9 6 6 8 9 10 12 8 9 9 9 3 2 3 4 6 9 3 4 2 5 3 3 3 4 2 6 1 0 1 4 0 3 1 2 2 2 5 13 18
6 7 8 5 7 8 8 7 6 9 9 10 11 6 9 6 1 0 5 3 3 4 1 2 6 5 3 3 4 4 4 3 1 1 2 4 2 1 5 2 6 6 10 15 17
7 7 8 7 6 6 7 8 8 7 9 10 12 4 8 3 5 1 4 2 2 2 2 4 4 7 5 6 5 4 4 4 2 1 2 3 4 2 5 4 4 5 16 18 17
7 6 7 8 5 6 7 7 8 8 7 9 12 8 3 2 2 3 3 2 2 3 3 4 5 5 5 6 5 5 5 5 4 2 1 3 2 4 5 2 2 11 14 17 15
7 6 6 8 5 5 5 7 8 8 6 7 9 8 1 2 2 1 4 3 3 2 2 4 4 3 5 3 13 8 7 4 3 1 1 2 2 1 2 3 6 10 12 12 14
9 7 6 8 6 6 5 5 7 8 5 5 7 2 1 7 3 2 4 1 1 2 3 0 1 2 5 2 4 6 4 3 3 2 2 2 3 4 4 2 7 7 7 8 9
7 8 6 6 7 7 5 5 6 8 5 5 5 2 4 3 3 2 2 1 2 2 3 2 2 2 5 2 4 3 5 7 2 5 1 4 8 2 5 4 7 6 6 8 8
6 6 6 6 6 6 6 4 5 7 4 5 1 1 4 5 1 1 3 2 2 3 2 2 1 2 3 5 3 2 6 6 4 1 3 3 6 1 2 4 5 5 6 7 6
6 8 5 6 6 4 3 4 3 3 2 2 1 1 3 0 2 2 2 1 2 3 2 2 1 3 3 4 7 5 3 3 5 6 2 4 7 2 1 4 5 5 5 5 5
6 6 5 4 6 3 2 3 4 4 1 4 3 1 0 2 1 1 1 2 1 2 3 2 2 6 5 4 3 4 4 5 1 1 3 9 6 6 1 3 5 6 5 3 4
7 6 5 5 6 6 3 2 1 1 2 3 3 3 2 2 2 1 4 4 4 3 3 3 7 4 3 3 4 3 2 2 0 0 3 2 6 4 2 3 3 5 5 3 4
7 6 6 7 5 4 1 3 1 1 2 2 3 2 3 2 2 2 8 5 3 5 5 4 1 7 7 3 5 5 3 5 1 2 2 4 5 4 3 3 5 6 5 5 4
5 7 8 7 5 3 3 2 1 2 5 4 3 4 3 5 2 1 3 4 3 9 4 6 4 7 5 6 5 3 7 6 7 5 5 4 4 5 5 5 4 5 8 8 9
6 8 9 7 5 4 1 3 1 4 4 3 2 3 3 4 2 2 2 1 5 6 5 5 7 7 5 4 6 2 3 5 4 3 2 3 3 2 8 5 4 5 9 10 11
6 8 13 4 2 2 4 2 3 8 5 2 3 3 7 3 1 2 3 3 1 3 2 3 1 0 4 3 6 7 5 6 5 3 4 7 7 4 5 7 6 6 9 12 13
13 12 6 1 3 1 2 1 6 5 4 2 1 5 6 4 2 1 5 6 4 5 6 3 2 3 2 4 3 9 5 1 2 3 4 4 8 1 2 7 14 15 11 12 13
12 11 7 2 3 1 4 4 4 4 4 2 2 3 5 6 4 3 4 8 1 1 4 5 5 7 3 2 4 9 8 4 6 4 2 4 6 2 1 9 13 15 15 13 13
6 3 4 4 3 4 3 3 7 5 4 1 1 3 3 3 3 3 4 4 6 6 3 4 2 1 0 1 1 6 6 2 6 2 2 4 2 3 3 14 13 15 13 13 12
3 3 2 6 1 3 3 1 1 2 2 3 5 3 5 7 6 6 6 3 6 4 1 2 3 2 2 2 7 2 11 4 1 6 5 3 4 4 6 16 14 12 12 12 11
5 4 3 4 2 4 3 1 2 3 5 4 3 1 4 6 5 5 4 0 3 7 5 3 1 0 1 2 4 3 3 5 4 2 4 3 5 0 4 18 17 12 11 12 11
3 3 2 1 4 2 3 1 3 3 3 0 2 2 3 3 6 3 8 3 3 6 8 3 3 3 2 3 2 2 5 3 5 4 3 1 4 6 4 11 13 13 13 12 12
3 2 2 3 2 0 1 2 1 2 1 1 1 1 2 2 4 4 5 1 3 7 5 5 1 3 1 2 1 3 3 3 3 2 5 5 4 5 7 13 12 16 14 13 13
3 2 5 5 1 5 4 3 3 0 0 1 2 2 2 2 1 4 4 3 1 2 7 3 3 3 4 2 4 3 6 9 4 2 3 5 4 3 6 16 13 13 13 14 12
4 2 3 1 3 2 1 3 2 1 3 3 0 4 3 2 2 2 3 2 1 2 3 4 4 3 2 3 1 2 6 12 10 2 6 3 7 9 9 15 15 15 13 13 12
5 5 1 2 2 3 3 2 4 1 1 2 3 5 3 2 2 3 2 5 4 1 3 0 3 2 4 3 3 2 6 5 6 3 5 2 2 5 7 6 12 15 14 13 11
1 2 5 2 2 3 3 4 3 4 2 1 3 2 7 4 3 3 2 5 2 5 3 3 5 3 3 3 3 6 12 13 7 6 7 6 7 11 8 14 16 15 13 13 11
Wind_Direction
341 330 335 349 359 345 357 356 343 353 357 356 5 13 360 335 320 34 16 172 89 70 317 347 36 75 64 89 90 121 58 214 255 84 298 337 20 35 219 107 76 62 139 184 137
313 331 323 331 349 356 348 2 353 345 353 351 356 355 346 337 326 317 28 17 15 2 36 149 147 107 90 92 71 103 120 219 249 158 291 298 267 168 106 97 163 80 43 127 143
296 307 326 314 336 348 356 350 359 351 346 349 338 340 333 325 237 354 356 23 4 33 57 319 72 73 126 130 172 170 183 206 227 145 305 304 14 324 128 235 220 186 160 155 158
299 303 304 316 314 339 347 347 353 352 341 349 341 356 330 317 189 26 349 34 52 69 62 104 104 139 159 183 156 171 195 193 200 109 323 330 311 287 194 227 308 173 162 161 170
258 272 287 294 296 316 338 338 339 343 346 345 348 350 343 353 288 334 354 49 71 119 143 155 150 143 185 173 132 180 177 179 210 320 217 301 297 246 246 285 37 127 154 170 175
281 267 266 267 277 278 315 326 331 336 343 340 348 343 31 241 331 37 348 82 46 94 127 169 195 171 117 206 197 179 181 191 199 284 42 56 317 136 322 111 120 150 166 175 178
287 239 243 254 253 252 282 328 324 329 332 334 342 359 354 235 347 343 34 53 326 126 155 63 58 212 128 150 291 157 163 222 180 207 171 159 327 230 328 141 156 176 167 172 184
263 250 242 249 237 236 257 316 322 321 314 321 327 126 239 349 312 0 10 36 46 52 87 123 193 113 114 136 35 129 143 195 226 179 186 117 265 253 320 185 195 184 174 180 190
218 232 250 276 239 222 249 312 318 297 300 333 34 151 254 319 91 328 12 64 63 46 89 153 112 138 108 149 139 245 170 200 176 345 135 149 253 290 331 231 229 206 202 194 179
212 223 242 272 210 192 253 307 304 8 358 82 68 110 301 180 31 24 352 33 80 120 115 101 109 150 150 170 215 155 151 160 176 192 184 175 248 179 35 189 255 235 222 207 186
207 214 212 229 195 180 44 38 35 2 30 190 189 270 324 300 149 109 222 104 206 133 166 192 197 208 159 211 88 128 151 168 104 42 185 200 203 227 223 210 218 247 237 206 192
195 206 209 190 193 120 102 122 199 172 300 210 283 222 304 277 71 281 131 152 172 165 141 126 230 161 146 201 143 127 137 148 21 150 162 226 248 249 239 256 202 223 239 182 146
192 197 182 170 141 134 198 229 21 182 156 193 205 253 178 202 158 240 160 166 159 177 186 223 333 152 150 168 190 164 185 194 268 148 55 142 266 204 176 80 52 41 64 69 123
177 171 147 138 94 159 237 290 244 150 73 268 214 253 152 176 248 229 234 176 176 191 185 237 204 168 167 180 157 187 194 158 138 166 218 171 264 246 169 109 56 54 77 83 85
155 159 148 137 144 179 239 297 192 59 49 254 187 311 205 154 114 113 333 117 190 174 161 205 176 185 186 179 155 126 97 134 169 146 305 196 226 249 143 164 139 92 94 89 85
142 139 122 94 58 342 325 281 58 47 264 166 132 168 173 153 119 110 144 46 124 189 134 177 322 290 181 123 146 136 84 62 37 95 240 184 207 199 186 180 138 119 102 102 98
104 90 74 66 143 352 13 77 44 127 285 186 153 179 202 161 177 232 164 178 181 185 181 153 81 329 294 110 67 168 148 126 163 197 241 340 192 291 166 170 155 141 124 113 111
101 84 63 41 302 17 36 64 208 233 208 11 274 183 179 149 193 188 163 192 210 108 161 153 179 178 172 143 156 179 185 179 189 190 170 340 227 232 299 127 138 136 130 120 108
96 29 60 343 331 60 100 164 203 204 180 143 179 164 196 147 183 176 205 200 159 187 180 151 163 45 349 312 169 160 189 30 109 69 87 211 284 299 113 130 139 138 132 125 113
85 59 22 314 12 55 83 167 228 193 145 208 190 170 165 172 191 182 183 166 157 142 112 136 134 343 46 187 30 223 145 91 67 154 216 218 264 222 167 161 157 152 137 122 112
63 56 268 334 62 55 133 251 283 219 189 215 199 241 226 162 179 167 182 357 118 130 77 121 120 161 277 210 167 113 140 75 121 150 167 168 246 93 215 181 170 150 134 130 116
98 53 323 24 53 55 127 252 315 354 17 285 280 234 224 173 168 174 195 194 160 151 137 205 128 137 93 180 296 307 154 193 152 208 246 210 268 333 226 166 156 137 131 124 121
103 184 337 94 134 225 253 249 233 328 358 357 275 273 179 225 174 153 147 318 199 156 145 178 181 89 77 106 326 229 155 110 34 87 196 145 252 14 90 113 134 136 137 131 125
89 53 339 51 107 138 147 275 331 137 120 58 326 286 216 179 40 148 130 216 203 133 138 121 107 153 173 160 118 178 175 157 115 172 192 224 167 183 158 135 137 139 136 132 128
32 251 204 222 320 83 80 160 121 307 339 24 355 10 259 152 120 141 120 129 291 172 92 126 147 126 133 165 145 135 149 180 184 244 189 215 192 194 178 156 153 143 132 133 135
134 139 81 94 297 138 357 250 168 266 270 3 79 354 98 85 334 171 159 172 190 153 104 160 130 95 1 1 121 152 182 133 207 262 298 288 195 142 117 114 143 152 150 150 149
184 29 105 352 343 81 223 191 188 157 172 61 138 80 45 28 22 39 70 79 88 172 117 133 140 103 235 19 104 331 206 189 173 192 168 201 208 149 150 172 170 158 156 157 152